DECAYED

STARLINK-2733, 48645 (Decayed)

Orbit data source: Space-Track

STARLINK-2733, 48645 was a payload satellite owned by SpaceX/Seattle (US) in LEO that was launched on Wed, 26 May 2021 UTC via an FALCON 9 launch vehicle from the Air Force Eastern Test Range (AFETR). Payload-class satellites include a variety of spacecraft equipped with specific instruments for various scientific and technological missions. These include communications satellites like Starlink; space stations such as the ISS; scientific satellites like the Hubble; Earth observation satellites from companies like Planet Labs, Umbra, and HawkEye 360; GPS; miniature CubeSats for education and research; and military/defense satellites.

Not visible in the next 10 days
Identifier
48645, 2021-044H
Orbit
Decayed
Country
Flag of USUS
Related business
Manufacturer
SpaceX/Seattle
Mission
Decayed Commercial Communications
Bus & Motor
STARLINK, Unknown motor
Mass
260 kg wet, ~248 kg dry
Launch date (UTC)
2021-05-26 (5 years ago)
Launch vehicle
FALCON 9
Launch site
Air Force Eastern Test Range (AFETR)
Object type
Payload
Rocket body
Debris
Shape & HBR
Box + 1 Pan, 10.1 m
Radar Cross Section
13.562 m², Large (>1 m²)

Expand to show TLE details & history
Last TLE update: 1 year ago

TLE from 1 year ago
0 STARLINK-2733
1 48645U 21044H   25088.16918712  .12146643  12622-4  33637-3 0  9995
2 48645  53.0188 193.9894 0007505  17.3246  52.4519 16.45010751213076
Epoch: 2025-03-29T04:03Z
TLE epoch observation values (Epoch: 2025-03-29T04:03:37.767Z)
Latitude
48.73731°
Longitude
4.8417°
Altitude
154.993 km
Speed
7.821 km/s
True Right ascension
16h 50m 16s
True Declination
48° 33' 04"
Sunlit
Object was in full shadow at epoch
Visualization orbit readout
Latitude
Unknown
Longitude
Unknown
Altitude
Unknown
Speed
Unknown
Apparent Right ascension
Unknown
Apparent Declination
Unknown
Sunlit
N/A
Visualization observer readout
Local Sidereal Time
21:23:37
Azimuth
Unknown
Elevation
Unknown
Doppler factor
Unknown
Orbital elements
Apogee altitude
157.701 km
Perigee altitude
147.898 km
Semi-major axis
6,530.937 km
Eccentricity
0.00075
Inclination
53.0188°
RAAN
193.9894°
Arg. of periapsis
17.3246°
True anomaly
52.52012°
Mean anomaly
52.4519°
Eccentric anomaly
52.48601°
Mean motion
4.11225 °/min
Orbital period
87.54 mins
BSTAR
0.00033637
Loading maneuver chart data...
Computing Atmospheric mass density...
Loading historical data...
Loading historical data...
Loading historical data...
Loading historical data...
Loading historical data...
Loading historical data...
Loading historical data...

Documentation

Showing up to 5 results
|